When you browse on this site, cookies collect data to enhance your experience and personalize the content and advertising you see.
Visit our Privacy Policy to learn more. By continuing to use the site, you agree to this use of cookies and data.
  • In Hungary
  • List of Countries
  • For 7 days
  • Water Temperature
  • Satellite Maps
  • Weather Map
  • News
  • Weather Widgets
  • user-avatar
    Login

    Hourly Weather Chhindwara

    Today, 17 January, Thursday

    Time Temperature Precipitation Wind Pressure Humidity
    00:00 +16°C° 0 mm 1 mps 702 mmHg 28%
    01:00 +15°C° 0 mm 1 mps 702 mmHg 28%
    02:00 +14°C° 0 mm 0 mps 702 mmHg 28%
    03:00 +14°C° 0 mm 0 mps 702 mmHg 28%
    04:00 +14°C° 0 mm 0 mps 702 mmHg 28%
    05:00 +13°C° 0 mm 0 mps 701 mmHg 29%
    06:00 +15°C° 0 mm 0 mps 702 mmHg 28%
    07:00 +16°C° 0 mm 0 mps 703 mmHg 28%
    08:00 +17°C° 0 mm 0 mps 703 mmHg 27%
    09:00 +22°C° 0 mm 1 mps 704 mmHg 25%
    10:00 +24°C° 0 mm 1 mps 704 mmHg 22%
    11:00 +26°C° 0 mm 1 mps 704 mmHg 20%
    12:00 +27°C° 0 mm 1 mps 704 mmHg 19%
    13:00 +28°C° 0 mm 1 mps 703 mmHg 18%
    14:00 +29°C° 0 mm 1 mps 702 mmHg 17%
    15:00 +27°C° 0 mm 1 mps 702 mmHg 20%
    16:00 +26°C° 0 mm 1 mps 702 mmHg 23%
    17:00 +25°C° 0 mm 2 mps 701 mmHg 26%
    18:00 +23°C° 0 mm 2 mps 701 mmHg 28%
    19:00 +20°C° 0 mm 2 mps 702 mmHg 30%
    20:00 +19°C° 0 mm 2 mps 702 mmHg 32%
    21:00 +18°C° 0 mm 2 mps 702 mmHg 32%
    22:00 +18°C° 0 mm 2 mps 702 mmHg 33%
    23:00 +17°C° 0 mm 2 mps 702 mmHg 33%

    Tomorrow, 18 January, Friday

    Time Temperature Precipitation Wind Pressure Humidity
    00:00 +17°C° 0 mm 2 mps 702 mmHg 33%
    01:00 +17°C° 0 mm 2 mps 702 mmHg 33%
    02:00 +17°C° 0 mm 2 mps 702 mmHg 33%
    03:00 +16°C° 0 mm 2 mps 702 mmHg 33%
    04:00 +16°C° 0 mm 2 mps 702 mmHg 34%
    05:00 +15°C° 0 mm 2 mps 702 mmHg 35%
    06:00 +16°C° 0 mm 2 mps 702 mmHg 34%
    07:00 +17°C° 0 mm 3 mps 703 mmHg 33%
    08:00 +18°C° 0 mm 3 mps 704 mmHg 32%
    09:00 +20°C° 0 mm 3 mps 704 mmHg 28%
    10:00 +24°C° 0 mm 3 mps 705 mmHg 24%
    11:00 +26°C° 0 mm 3 mps 705 mmHg 20%
    12:00 +27°C° 0 mm 3 mps 704 mmHg 19%
    13:00 +27°C° 0 mm 2 mps 704 mmHg 18%
    14:00 +28°C° 0 mm 2 mps 703 mmHg 18%
    15:00 +27°C° 0 mm 2 mps 702 mmHg 21%
    16:00 +25°C° 0 mm 2 mps 702 mmHg 24%
    17:00 +24°C° 0 mm 2 mps 702 mmHg 27%
    18:00 +21°C° 0 mm 3 mps 702 mmHg 29%
    19:00 +20°C° 0 mm 3 mps 702 mmHg 32%
    20:00 +18°C° 0 mm 3 mps 703 mmHg 34%
    21:00 +18°C° 0 mm 3 mps 703 mmHg 35%
    22:00 +17°C° 0 mm 3 mps 703 mmHg 35%
    23:00 +17°C° 0 mm 2 mps 703 mmHg 35%

    Day after tomorrow, 19 January, Saturday

    Time Temperature Precipitation Wind Pressure Humidity
    00:00 +17°C° 0 mm 2 mps 702 mmHg 34%
    01:00 +16°C° 0 mm 2 mps 702 mmHg 34%
    02:00 +16°C° 0 mm 2 mps 702 mmHg 33%
    03:00 +16°C° 0 mm 2 mps 702 mmHg 34%
    04:00 +15°C° 0 mm 2 mps 702 mmHg 35%
    05:00 +15°C° 0 mm 2 mps 702 mmHg 35%
    06:00 +16°C° 0 mm 2 mps 703 mmHg 34%
    07:00 +17°C° 0 mm 2 mps 704 mmHg 32%
    08:00 +18°C° 0 mm 2 mps 704 mmHg 31%
    09:00 +20°C° 0 mm 2 mps 705 mmHg 26%
    10:00 +24°C° 0 mm 3 mps 705 mmHg 21%
    11:00 +26°C° 0 mm 3 mps 705 mmHg 16%
    12:00 +27°C° 0 mm 2 mps 704 mmHg 16%
    13:00 +28°C° 0 mm 2 mps 704 mmHg 15%
    14:00 +29°C° 0 mm 2 mps 703 mmHg 14%
    15:00 +27°C° 0 mm 2 mps 703 mmHg 17%
    16:00 +26°C° 0 mm 2 mps 702 mmHg 20%
    17:00 +25°C° 0 mm 2 mps 702 mmHg 22%
    18:00 +23°C° 0 mm 2 mps 702 mmHg 25%
    19:00 +20°C° 0 mm 3 mps 703 mmHg 27%
    20:00 +19°C° 0 mm 3 mps 703 mmHg 29%
    21:00 +18°C° 0 mm 2 mps 703 mmHg 30%
    22:00 +18°C° 0 mm 2 mps 703 mmHg 31%
    23:00 +17°C° 0 mm 2 mps 703 mmHg 32%

    20 January, Sunday

    Time Temperature Precipitation Wind Pressure Humidity
    00:00 +17°C° 0 mm 2 mps 703 mmHg 32%
    01:00 +17°C° 0 mm 2 mps 702 mmHg 31%
    02:00 +17°C° 0 mm 2 mps 702 mmHg 31%
    03:00 +16°C° 0 mm 2 mps 702 mmHg 31%
    04:00 +16°C° 0 mm 2 mps 702 mmHg 30%
    05:00 +16°C° 0 mm 2 mps 702 mmHg 30%
    06:00 +17°C° 0 mm 2 mps 703 mmHg 30%
    07:00 +18°C° 0 mm 2 mps 704 mmHg 29%
    08:00 +19°C° 0 mm 2 mps 705 mmHg 29%
    09:00 +23°C° 0 mm 2 mps 705 mmHg 25%
    10:00 +25°C° 0 mm 1 mps 705 mmHg 21%
    11:00 +28°C° 0 mm 1 mps 705 mmHg 18%
    12:00 +28°C° 0 mm 1 mps 705 mmHg 17%
    13:00 +29°C° 0 mm 1 mps 704 mmHg 16%
    14:00 +30°C° 0 mm 1 mps 703 mmHg 15%
    15:00 +28°C° 0 mm 1 mps 703 mmHg 18%
    16:00 +27°C° 0 mm 2 mps 703 mmHg 21%
    17:00 +26°C° 0 mm 2 mps 702 mmHg 24%
    18:00 +24°C° 0 mm 1 mps 703 mmHg 26%
    19:00 +23°C° 0 mm 1 mps 703 mmHg 28%
    20:00 +19°C° 0 mm 0 mps 703 mmHg 30%
    21:00 +18°C° 0 mm 0 mps 703 mmHg 30%
    22:00 +18°C° 0 mm 0 mps 703 mmHg 31%
    23:00 +17°C° 0 mm 0 mps 703 mmHg 32%

    21 January, Monday

    Time Temperature Precipitation Wind Pressure Humidity
    00:00 +17°C° 0 mm 0 mps 702 mmHg 32%
    01:00 +17°C° 0 mm 0 mps 702 mmHg 33%
    02:00 +17°C° 0 mm 0 mps 702 mmHg 33%
    03:00 +16°C° 0 mm 0 mps 702 mmHg 33%
    04:00 +16°C° 0 mm 0 mps 702 mmHg 33%
    05:00 +16°C° 0 mm 0 mps 701 mmHg 34%
    06:00 +19°C° 0 mm 1 mps 702 mmHg 33%
    07:00 +20°C° 0 mm 1 mps 703 mmHg 32%
    08:00 +22°C° 0 mm 1 mps 704 mmHg 31%
    09:00 +24°C° 0 mm 2 mps 704 mmHg 27%
    10:00 +26°C° 0 mm 3 mps 704 mmHg 24%
    11:00 +28°C° 0 mm 4 mps 704 mmHg 20%
    12:00 +28°C° 0 mm 4 mps 704 mmHg 20%
    13:00 +29°C° 0 mm 4 mps 703 mmHg 19%
    14:00 +29°C° 0 mm 4 mps 702 mmHg 18%
    15:00 +28°C° 0 mm 4 mps 702 mmHg 21%
    16:00 +27°C° 0 mm 3 mps 701 mmHg 24%
    17:00 +26°C° 0 mm 3 mps 701 mmHg 26%
    18:00 +24°C° 0 mm 2 mps 701 mmHg 28%
    19:00 +23°C° 0 mm 2 mps 702 mmHg 29%
    20:00 +21°C° 0 mm 1 mps 702 mmHg 30%
    21:00 +21°C° 0 mm 1 mps 702 mmHg 31%
    22:00 +21°C° 0 mm 1 mps 701 mmHg 31%
    23:00 +20°C° 0 mm 1 mps 701 mmHg 32%

    22 January, Tuesday

    Time Temperature Precipitation Wind Pressure Humidity
    00:00 +20°C° 0 mm 1 mps 701 mmHg 32%
    01:00 +20°C° 0 mm 1 mps 701 mmHg 32%
    02:00 +20°C° 0 mm 1 mps 700 mmHg 33%
    03:00 +19°C° 0 mm 2 mps 700 mmHg 34%
    04:00 +19°C° 0 mm 2 mps 700 mmHg 35%
    05:00 +19°C° 0 mm 2 mps 701 mmHg 36%
    06:00 +19°C° 0 mm 3 mps 701 mmHg 38%
    07:00 +20°C° 0 mm 3 mps 702 mmHg 41%
    08:00 +20°C° 0 mm 3 mps 703 mmHg 43%
    09:00 +22°C° 0 mm 4 mps 703 mmHg 40%
    10:00 +26°C° 0 mm 5 mps 703 mmHg 37%
    11:00 +28°C° 0 mm 6 mps 704 mmHg 34%
    12:00 +28°C° 0 mm 6 mps 703 mmHg 32%
    13:00 +29°C° 0 mm 6 mps 702 mmHg 30%
    14:00 +29°C° 0 mm 6 mps 701 mmHg 28%
    15:00 +28°C° 0 mm 5 mps 701 mmHg 31%
    16:00 +28°C° 0 mm 4 mps 701 mmHg 33%
    17:00 +27°C° 0 mm 3 mps 701 mmHg 35%
    18:00 +25°C° 0 mm 3 mps 701 mmHg 37%
    19:00 +24°C° 0 mm 3 mps 702 mmHg 39%
    20:00 +22°C° 0 mm 3 mps 702 mmHg 42%
    21:00 +21°C° 0 mm 2 mps 702 mmHg 43%
    22:00 +21°C° 0 mm 2 mps 702 mmHg 44%
    23:00 +21°C° 0 mm 1 mps 702 mmHg 45%
    Show more